SCP
0 0 0 0 0 0 0 0 0 0 0 0 0 0 0 0 0 0 0 0 0 0 0 0 0 0 0 0 0 0 0 0 0 0 0 0 0 0 0 0 0 0 0
0 0 0 0 0 0 0 0 0 0 0 0 0 0 0 0 0 0 0 0 0 0 0 0 0 0 0 0 0 0 0 0 0 0 0 0 0 0 0 0 0 0 0
0 0 0 0 0 0 0 0 0 0 0 0 0 0 0 0 0 0 0 0 0 0 0 0 0 0 0 0 0 0 0 0 0 0 0 0 0 0 0 0 0 0 0
0 0 0 0 0 0 0 0 0 0 0 0 0 0 0 0 0 0 0 0 0 0 0 0 0 0 0 0 0 0 0 0 0 0 0 0 0 0 0 0 0 0 0
0 0 0 0 0 0 0 0 0 0 0 0 0 0 0 0 0 0 0 0 0 0 0 0 0 0 0 0 0 0 0 0 0 0 -0 0 0 0 0 0 0 0 0
0 0 0 0 0 0 0 0 0 0 0 0 0 0 0 0 0 0 0 0 0 0 0 0 0 0 0 0 0 0 0 0 0 0 0 0 0 0 0 0 0 0 0
0 0 0 0 0 0 0 0 0 0 0 0 0 0 0 0 0 0 0 0 0 0 0 0 0 0 0 0 0 0 0 0 0 0 0 0 0 0 0 0 0 0 0
0 0 0 0 0 0 0 0 0 0 0 0 0 0 0 0 0 0 0 0 0 0 0 0 0 0 0 0 0 0 0 0 0 0 0 0 0 0 0 0 0 0 0
0 0 0 0 0 0 0 0 0 0 0 0 0 0 0 0 0 0 0 0 0 0 0 0 0 0 0 0 0 0 -0 0 0 0 0 0 0 0 0 0 0 0 0
0 0 0 0 0 0 0 0 0 0 0 0 0 0 0 0 0 0 0 0 0 0 0 0 0 0 0 0 0 0 0 0 0 0 -0 0 0 0 0 0 0 0 0
0 0 0 0 0 0 0 0 0 0 0 0 0 0 0 0 0 0 0 0 0 0 0 0 0 0 0 -0 -0 -0 -0 -0 -0 -0 -0 0 0 0 0 0 0 0 0
0 0 0 0 0 0 0 0 0 0 0 0 0 0 0 0 0 0 0 0 0 0 0 0 -0 0 0 0 0 0 -0 -0 -0 0 0 0 0 0 0 0 -0 0 0
0 0 0 0 0 0 0 0 0 0 0 0 0 0 0 0 0 0 0 -0 0 0 0 0 -0 -0 0 0 0 0 0 0 0 0 0 0 -0 -0 -0 -0 0 0 -0
0 0 0 0 0 0 0 0 0 0 0 0 0 0 0 0 0 0 0 0 0 0 0 0 -0 -0 0 -0 -0 -0 0 0 0 0 0 0 0 0 -0 -0 -0 0 0
0 0 0 0 0 0 0 0 0 0 0 0 0 0 0 0 0 0 0 0 0 0 0 0 -0 0 0 0 -0 0 0 0 -0 0 0 0 0 0 0 0 0 -0 0
0 0 0 0 0 0 0 0 0 0 0 0 0 0 0 0 0 -0 -0 -0 0 0 0 -0 -0 0 0 0 -0 0 0 0 0 0 0 0 0 0 0 0 0 0 0
0 0 0 0 0 0 0 0 0 0 0 0 0 0 0 0 0 -0 0 0 0 -0 -0 -0 -0 -0 0 0 0 0 0 0 0 0 0 0 0 0 -0 0 0 0 -0
0 0 0 0 0 0 0 0 0 0 0 0 0 0 0 0 0 -0 -0 0 -0 -0 -0 -0 -0 -0 0 -0 -0 -0 -0 0 -0 -0 -0 -0 -0 -0 -0 0 0 0 0
0 0 0 0 0 0 0 0 0 0 0 0 0 0 0 0 0 0 -0 -0 -0 -0 -0 -0 -0 0 0 -0 0 -0 -0 -0 0 -0 -0 -0 -0 -0 -0 -0 -0 0 0
0 0 0 0 0 0 0 0 0 0 0 0 0 0 0 0 0 0 -0 -0 -0 -0 -0 -0 -0 -0 -0 -0 0 -0 -0 0 0 0 -0 -0 -0 -0 -0 0 -0 0 0
0 0 0 0 0 0 0 0 0 0 0 0 0 0 0 0 0 0 0 -0 -0 -0 -0 -0 -0 -0 -0 0 0 0 -0 -0 0 0 0 0 0 0 0 0 0 0 0
0 0 0 0 0 0 0 0 0 0 0 0 0 0 0 0 0 0 0 0 -0 -0 -0 -0 -0 -0 0 0 0 0 0 0 0 0 0 0 0 0 0 0 0 0 0
0 0 0 0 0 0 0 0 0 0 0 0 0 0 0 0 0 0 0 0 0 -0 -0 -0 -0 -0 -0 0 0 0 0 0 0 0 0 0 0 0 0 0 0 0 0
0 0 0 0 0 0 0 0 0 0 0 0 0 0 0 0 0 0 0 0 0 0 0 0 -0 -0 -0 -0 0 0 0 0 0 0 0 0 0 0 0 0 0 0 0
0 0 0 0 0 0 0 0 0 0 0 0 0 0 0 0 0 0 0 0 0 0 0 0 0 0 -0 -0 0 0 0 0 0 0 0 0 0 0 0 0 0 0 0
0 0 0 0 0 0 0 0 0 0 0 0 0 0 0 0 0 0 0 0 0 0 0 0 0 0 -0 -0 0 0 0 0 0 0 0 0 0 0 0 0 0 0 0
Wind_Speed_500mb
36 46 41 33 30 31 32 38 44 53 58 48 50 54 51 49 49 51 52 49 44 46 44 44 47 46 45 43 43 45 46 47 53 54 45 44 39 37 30 38 42 31 36
46 30 35 34 36 34 36 43 44 41 39 40 45 46 49 46 48 51 51 49 52 45 45 46 51 53 58 53 45 45 45 45 51 60 52 50 53 49 43 40 31 32 37
38 34 34 40 38 33 36 38 35 40 42 44 47 47 47 47 45 45 45 39 37 39 44 53 51 54 55 56 53 52 49 43 43 46 50 47 47 46 48 47 42 38 38
53 33 30 45 36 34 33 37 40 42 44 45 44 44 45 48 50 46 44 48 56 64 71 61 64 55 54 55 53 46 49 53 51 51 52 46 44 44 48 54 57 57 54
46 44 56 47 41 29 32 34 39 42 42 42 46 48 50 49 46 49 57 62 65 69 73 73 62 57 58 53 52 56 51 54 67 70 68 56 46 44 43 36 35 32 31
45 56 51 52 41 30 30 31 35 42 41 48 47 51 48 42 47 58 68 68 70 72 78 82 58 51 53 53 44 50 47 52 53 54 56 54 57 53 52 42 38 35 34
61 56 46 47 42 28 30 31 35 42 46 47 51 46 42 39 46 64 70 72 75 76 71 56 57 55 54 50 46 47 47 46 50 57 57 56 61 62 67 67 59 47 41
71 55 53 46 31 29 28 34 33 43 47 51 43 42 45 53 60 67 68 64 68 68 56 54 54 54 52 49 48 49 46 48 54 53 54 57 51 44 45 48 50 53 57
76 52 56 33 30 38 22 36 35 48 47 40 45 49 59 68 63 59 56 67 61 64 54 48 48 54 53 46 45 50 50 49 44 43 49 56 54 53 57 60 63 58 56
62 65 39 24 33 28 28 31 38 41 40 52 59 61 67 59 50 50 58 54 58 64 56 57 53 48 55 51 47 49 49 46 39 47 49 50 54 53 44 47 59 64 63
49 39 32 33 32 29 31 37 37 41 46 46 55 62 53 45 48 47 52 49 54 61 58 51 43 40 37 41 46 49 51 53 58 59 57 52 44 41 45 52 55 52 52
56 43 46 39 33 30 33 33 40 43 38 44 57 48 44 41 51 48 47 49 62 51 49 45 48 47 46 46 35 25 29 35 32 22 25 31 33 33 32 29 36 45 49
46 46 39 35 32 31 38 40 37 35 42 54 52 56 48 53 47 45 55 57 48 46 45 39 30 37 35 20 23 23 24 13 23 21 23 24 26 29 30 30 32 35 43
40 39 41 33 33 32 27 33 32 38 50 51 50 52 54 57 49 50 51 50 48 44 36 33 32 31 18 28 24 22 16 16 16 18 21 21 20 19 20 21 25 24 27
34 34 30 30 29 33 27 32 31 39 45 44 45 46 53 57 55 46 44 48 44 41 29 31 31 27 31 31 26 21 19 19 17 17 15 19 19 19 14 14 17 18 21
47 32 31 32 28 30 22 28 33 38 39 43 43 49 55 53 60 43 40 40 34 35 26 29 32 32 31 34 32 26 25 28 24 20 17 19 20 18 16 15 19 14 18
37 36 28 28 23 23 26 33 40 32 34 39 43 49 51 53 54 43 40 35 30 31 27 27 31 32 30 29 30 30 35 32 24 24 23 20 20 14 21 18 15 19 15
37 31 33 25 28 28 30 28 27 32 34 31 39 43 37 50 46 43 42 35 29 32 28 27 30 31 31 29 28 27 34 35 28 22 22 22 18 18 18 19 13 16 16
23 38 40 39 22 23 25 26 27 29 31 30 33 31 39 52 36 36 38 41 33 28 29 26 25 27 29 27 25 22 27 30 30 20 22 25 24 20 19 17 18 14 14
19 29 34 38 20 22 24 27 27 27 28 30 31 38 46 52 34 35 34 37 37 29 28 24 23 24 26 25 23 19 22 23 22 20 18 23 25 19 20 20 17 17 16
23 33 40 30 24 24 27 26 27 30 29 29 31 39 42 45 32 34 33 35 34 32 29 26 22 25 27 25 25 22 21 24 21 20 13 19 24 20 21 20 15 16 18
39 41 24 26 26 28 26 30 27 25 29 30 33 33 38 38 40 38 29 33 31 31 29 27 25 26 28 28 27 28 28 30 29 27 17 15 19 15 17 19 21 17 17
22 24 23 24 24 30 33 27 27 27 28 33 31 31 31 33 38 38 34 30 28 28 26 27 25 24 25 25 26 27 29 30 30 29 23 20 22 16 12 14 14 22 19
20 25 24 25 24 28 33 27 28 30 27 30 31 32 32 33 38 35 33 30 32 29 28 24 26 26 25 24 24 25 27 28 28 26 24 22 21 19 14 14 7 15 22
25 24 26 23 23 25 29 33 30 30 27 27 32 32 34 33 34 34 35 33 33 31 30 28 26 25 25 26 25 26 26 27 28 26 23 22 20 19 14 16 11 10 17
36 32 27 25 27 27 28 29 36 32 29 28 29 32 32 34 36 34 34 36 35 32 34 31 27 27 26 26 25 26 26 26 26 25 24 21 19 19 17 18 15 13 14
Wind_Direction_500mb
305 307 313 314 310 309 313 298 300 310 317 315 320 326 325 322 322 321 322 321 315 306 300 302 295 295 297 290 290 280 285 283 283 291 291 288 290 286 289 276 266 266 264
319 318 316 314 311 307 305 307 315 322 322 317 318 319 321 323 322 320 319 317 313 311 308 303 299 299 296 294 300 296 289 288 287 288 290 291 285 287 283 279 278 262 260
309 307 309 307 305 313 314 317 323 322 320 317 315 315 315 315 313 312 310 308 293 293 302 303 310 296 291 288 287 283 286 291 286 294 292 287 286 284 285 280 278 275 268
308 289 302 303 303 306 309 307 311 313 314 315 317 317 316 314 313 304 302 299 301 301 303 297 289 297 301 291 285 279 275 276 280 286 290 293 289 286 285 285 280 273 271
305 293 305 290 285 290 284 303 310 313 315 313 313 312 314 317 304 308 306 305 306 305 303 304 297 285 286 294 294 284 282 278 280 284 281 280 284 285 282 285 283 276 265
300 294 299 293 291 285 300 309 309 313 315 315 311 310 310 312 307 307 303 306 307 308 306 305 301 296 291 293 290 290 287 287 285 280 276 274 273 270 271 283 284 283 288
306 300 297 286 295 288 298 305 306 310 314 314 313 313 305 303 306 304 306 312 315 314 308 298 296 296 292 297 294 280 277 275 271 266 268 276 278 272 268 271 272 277 280
317 311 305 300 306 288 299 299 313 311 314 315 314 309 305 300 298 309 307 309 313 321 311 301 295 295 295 291 296 293 284 277 277 281 283 280 280 280 272 267 270 273 271
319 310 313 328 295 292 303 300 311 312 319 309 311 305 308 316 322 315 313 313 317 322 319 314 309 305 299 295 287 286 287 284 282 278 271 270 269 270 269 272 273 271 270
326 319 303 318 307 317 317 316 311 318 317 314 314 315 322 323 320 314 309 315 320 322 316 313 311 309 299 296 286 280 278 286 279 277 273 273 273 272 266 260 263 262 264
340 326 314 320 306 332 317 310 314 319 320 313 313 319 327 329 317 326 320 320 320 317 316 317 318 304 309 303 303 295 288 284 281 282 283 283 282 279 272 265 263 262 269
325 318 318 320 322 318 312 304 318 320 308 308 317 324 324 321 314 325 316 318 319 322 321 316 306 312 310 309 309 311 299 292 292 295 301 303 298 295 290 279 261 260 268
321 320 314 311 319 305 305 319 321 307 306 317 321 325 321 318 325 313 312 317 329 329 326 327 339 317 325 342 334 324 319 333 327 303 301 302 294 289 284 280 276 269 265
313 313 316 314 309 315 315 317 310 305 314 320 326 331 333 338 333 323 331 335 336 337 345 349 334 337 354 4 353 350 339 324 320 326 313 318 317 313 309 300 306 307 286
308 303 310 308 297 304 310 311 320 320 320 321 328 334 338 342 343 333 333 335 337 340 352 345 353 11 18 4 1 2 0 353 339 329 337 336 332 322 316 325 317 320 303
309 306 301 305 308 314 309 295 303 310 316 326 335 339 338 342 341 341 339 338 343 346 354 355 5 7 10 10 4 9 18 8 4 0 351 344 344 346 346 342 6 327 327
309 314 313 305 298 301 296 299 309 316 323 331 333 338 336 336 340 344 347 349 346 344 357 6 2 2 4 4 6 14 16 7 6 18 7 359 349 15 4 343 344 330 325
306 315 310 298 295 291 296 310 318 321 327 335 328 335 327 328 336 349 350 350 351 357 3 6 358 358 358 2 6 13 19 5 9 18 18 17 13 18 3 357 355 354 360
312 299 307 318 291 293 308 312 313 314 321 325 322 324 309 329 345 347 346 347 351 353 350 355 356 354 353 359 5 13 16 9 4 16 28 27 23 13 6 2 0 2 355
301 293 293 306 291 297 301 304 308 310 314 321 324 315 322 336 348 352 350 342 344 349 348 353 355 350 348 355 359 9 9 1 1 12 30 35 27 19 16 3 0 358 353
287 273 285 293 293 282 295 303 303 303 307 316 319 316 324 335 346 343 343 337 338 347 353 354 357 354 358 359 4 8 3 0 359 10 36 36 30 15 21 12 7 3 352
261 279 282 286 285 288 291 294 303 305 308 313 316 317 321 330 326 328 330 329 336 341 348 353 354 356 359 1 5 7 10 9 9 13 25 28 24 18 21 14 5 357 3
285 286 289 283 282 285 293 298 296 299 300 303 315 319 319 317 315 319 324 325 331 333 339 345 347 351 353 354 356 358 359 1 4 4 7 6 14 2 7 1 9 6 358
278 275 286 287 280 280 292 302 294 301 303 306 313 315 317 314 314 315 318 319 316 325 330 336 334 339 344 345 347 350 349 351 353 356 355 346 358 354 357 355 9 10 344
305 289 292 286 280 281 285 294 296 298 298 301 302 306 305 308 309 310 308 306 309 315 322 326 327 328 329 330 336 341 343 344 344 346 347 342 349 350 352 348 6 345 337
283 280 277 270 272 273 278 282 285 292 293 295 300 302 305 308 311 312 310 311 310 315 319 318 325 324 324 324 331 333 336 339 342 341 341 338 344 347 353 348 357 344 346
Wind_Speed_850mb
36 46 41 33 30 31 32 38 44 53 58 48 50 54 51 49 49 51 52 49 44 46 44 44 47 46 45 43 43 45 46 47 53 54 45 44 39 37 30 38 42 31 36
46 30 35 34 36 34 36 43 44 41 39 40 45 46 49 46 48 51 51 49 52 45 45 46 51 53 58 53 45 45 45 45 51 60 52 50 53 49 43 40 31 32 37
38 34 34 40 38 33 36 38 35 40 42 44 47 47 47 47 45 45 45 39 37 39 44 53 51 54 55 56 53 52 49 43 43 46 50 47 47 46 48 47 42 38 38
53 33 30 45 36 34 33 37 40 42 44 45 44 44 45 48 50 46 44 48 56 64 71 61 64 55 54 55 53 46 49 53 51 51 52 46 44 44 48 54 57 57 54
46 44 56 47 41 29 32 34 39 42 42 42 46 48 50 49 46 49 57 62 65 69 73 73 62 57 58 53 52 56 51 54 67 70 68 56 46 44 43 36 35 32 31
45 56 51 52 41 30 30 31 35 42 41 48 47 51 48 42 47 58 68 68 70 72 78 82 58 51 53 53 44 50 47 52 53 54 56 54 57 53 52 42 38 35 34
61 56 46 47 42 28 30 31 35 42 46 47 51 46 42 39 46 64 70 72 75 76 71 56 57 55 54 50 46 47 47 46 50 57 57 56 61 62 67 67 59 47 41
71 55 53 46 31 29 28 34 33 43 47 51 43 42 45 53 60 67 68 64 68 68 56 54 54 54 52 49 48 49 46 48 54 53 54 57 51 44 45 48 50 53 57
76 52 56 33 30 38 22 36 35 48 47 40 45 49 59 68 63 59 56 67 61 64 54 48 48 54 53 46 45 50 50 49 44 43 49 56 54 53 57 60 63 58 56
62 65 39 24 33 28 28 31 38 41 40 52 59 61 67 59 50 50 58 54 58 64 56 57 53 48 55 51 47 49 49 46 39 47 49 50 54 53 44 47 59 64 63
49 39 32 33 32 29 31 37 37 41 46 46 55 62 53 45 48 47 52 49 54 61 58 51 43 40 37 41 46 49 51 53 58 59 57 52 44 41 45 52 55 52 52
56 43 46 39 33 30 33 33 40 43 38 44 57 48 44 41 51 48 47 49 62 51 49 45 48 47 46 46 35 25 29 35 32 22 25 31 33 33 32 29 36 45 49
46 46 39 35 32 31 38 40 37 35 42 54 52 56 48 53 47 45 55 57 48 46 45 39 30 37 35 20 23 23 24 13 23 21 23 24 26 29 30 30 32 35 43
40 39 41 33 33 32 27 33 32 38 50 51 50 52 54 57 49 50 51 50 48 44 36 33 32 31 18 28 24 22 16 16 16 18 21 21 20 19 20 21 25 24 27
34 34 30 30 29 33 27 32 31 39 45 44 45 46 53 57 55 46 44 48 44 41 29 31 31 27 31 31 26 21 19 19 17 17 15 19 19 19 14 14 17 18 21
47 32 31 32 28 30 22 28 33 38 39 43 43 49 55 53 60 43 40 40 34 35 26 29 32 32 31 34 32 26 25 28 24 20 17 19 20 18 16 15 19 14 18
37 36 28 28 23 23 26 33 40 32 34 39 43 49 51 53 54 43 40 35 30 31 27 27 31 32 30 29 30 30 35 32 24 24 23 20 20 14 21 18 15 19 15
37 31 33 25 28 28 30 28 27 32 34 31 39 43 37 50 46 43 42 35 29 32 28 27 30 31 31 29 28 27 34 35 28 22 22 22 18 18 18 19 13 16 16
23 38 40 39 22 23 25 26 27 29 31 30 33 31 39 52 36 36 38 41 33 28 29 26 25 27 29 27 25 22 27 30 30 20 22 25 24 20 19 17 18 14 14
19 29 34 38 20 22 24 27 27 27 28 30 31 38 46 52 34 35 34 37 37 29 28 24 23 24 26 25 23 19 22 23 22 20 18 23 25 19 20 20 17 17 16
23 33 40 30 24 24 27 26 27 30 29 29 31 39 42 45 32 34 33 35 34 32 29 26 22 25 27 25 25 22 21 24 21 20 13 19 24 20 21 20 15 16 18
39 41 24 26 26 28 26 30 27 25 29 30 33 33 38 38 40 38 29 33 31 31 29 27 25 26 28 28 27 28 28 30 29 27 17 15 19 15 17 19 21 17 17
22 24 23 24 24 30 33 27 27 27 28 33 31 31 31 33 38 38 34 30 28 28 26 27 25 24 25 25 26 27 29 30 30 29 23 20 22 16 12 14 14 22 19
20 25 24 25 24 28 33 27 28 30 27 30 31 32 32 33 38 35 33 30 32 29 28 24 26 26 25 24 24 25 27 28 28 26 24 22 21 19 14 14 7 15 22
25 24 26 23 23 25 29 33 30 30 27 27 32 32 34 33 34 34 35 33 33 31 30 28 26 25 25 26 25 26 26 27 28 26 23 22 20 19 14 16 11 10 17
36 32 27 25 27 27 28 29 36 32 29 28 29 32 32 34 36 34 34 36 35 32 34 31 27 27 26 26 25 26 26 26 26 25 24 21 19 19 17 18 15 13 14
Wind_Direction_850mb
305 307 313 314 310 309 313 298 300 310 317 315 320 326 325 322 322 321 322 321 315 306 300 302 295 295 297 290 290 280 285 283 283 291 291 288 290 286 289 276 266 266 264
319 318 316 314 311 307 305 307 315 322 322 317 318 319 321 323 322 320 319 317 313 311 308 303 299 299 296 294 300 296 289 288 287 288 290 291 285 287 283 279 278 262 260
309 307 309 307 305 313 314 317 323 322 320 317 315 315 315 315 313 312 310 308 293 293 302 303 310 296 291 288 287 283 286 291 286 294 292 287 286 284 285 280 278 275 268
308 289 302 303 303 306 309 307 311 313 314 315 317 317 316 314 313 304 302 299 301 301 303 297 289 297 301 291 285 279 275 276 280 286 290 293 289 286 285 285 280 273 271
305 293 305 290 285 290 284 303 310 313 315 313 313 312 314 317 304 308 306 305 306 305 303 304 297 285 286 294 294 284 282 278 280 284 281 280 284 285 282 285 283 276 265
300 294 299 293 291 285 300 309 309 313 315 315 311 310 310 312 307 307 303 306 307 308 306 305 301 296 291 293 290 290 287 287 285 280 276 274 273 270 271 283 284 283 288
306 300 297 286 295 288 298 305 306 310 314 314 313 313 305 303 306 304 306 312 315 314 308 298 296 296 292 297 294 280 277 275 271 266 268 276 278 272 268 271 272 277 280
317 311 305 300 306 288 299 299 313 311 314 315 314 309 305 300 298 309 307 309 313 321 311 301 295 295 295 291 296 293 284 277 277 281 283 280 280 280 272 267 270 273 271
319 310 313 328 295 292 303 300 311 312 319 309 311 305 308 316 322 315 313 313 317 322 319 314 309 305 299 295 287 286 287 284 282 278 271 270 269 270 269 272 273 271 270
326 319 303 318 307 317 317 316 311 318 317 314 314 315 322 323 320 314 309 315 320 322 316 313 311 309 299 296 286 280 278 286 279 277 273 273 273 272 266 260 263 262 264
340 326 314 320 306 332 317 310 314 319 320 313 313 319 327 329 317 326 320 320 320 317 316 317 318 304 309 303 303 295 288 284 281 282 283 283 282 279 272 265 263 262 269
325 318 318 320 322 318 312 304 318 320 308 308 317 324 324 321 314 325 316 318 319 322 321 316 306 312 310 309 309 311 299 292 292 295 301 303 298 295 290 279 261 260 268
321 320 314 311 319 305 305 319 321 307 306 317 321 325 321 318 325 313 312 317 329 329 326 327 339 317 325 342 334 324 319 333 327 303 301 302 294 289 284 280 276 269 265
313 313 316 314 309 315 315 317 310 305 314 320 326 331 333 338 333 323 331 335 336 337 345 349 334 337 354 4 353 350 339 324 320 326 313 318 317 313 309 300 306 307 286
308 303 310 308 297 304 310 311 320 320 320 321 328 334 338 342 343 333 333 335 337 340 352 345 353 11 18 4 1 2 0 353 339 329 337 336 332 322 316 325 317 320 303
309 306 301 305 308 314 309 295 303 310 316 326 335 339 338 342 341 341 339 338 343 346 354 355 5 7 10 10 4 9 18 8 4 0 351 344 344 346 346 342 6 327 327
309 314 313 305 298 301 296 299 309 316 323 331 333 338 336 336 340 344 347 349 346 344 357 6 2 2 4 4 6 14 16 7 6 18 7 359 349 15 4 343 344 330 325
306 315 310 298 295 291 296 310 318 321 327 335 328 335 327 328 336 349 350 350 351 357 3 6 358 358 358 2 6 13 19 5 9 18 18 17 13 18 3 357 355 354 360
312 299 307 318 291 293 308 312 313 314 321 325 322 324 309 329 345 347 346 347 351 353 350 355 356 354 353 359 5 13 16 9 4 16 28 27 23 13 6 2 0 2 355
301 293 293 306 291 297 301 304 308 310 314 321 324 315 322 336 348 352 350 342 344 349 348 353 355 350 348 355 359 9 9 1 1 12 30 35 27 19 16 3 0 358 353
287 273 285 293 293 282 295 303 303 303 307 316 319 316 324 335 346 343 343 337 338 347 353 354 357 354 358 359 4 8 3 0 359 10 36 36 30 15 21 12 7 3 352
261 279 282 286 285 288 291 294 303 305 308 313 316 317 321 330 326 328 330 329 336 341 348 353 354 356 359 1 5 7 10 9 9 13 25 28 24 18 21 14 5 357 3
285 286 289 283 282 285 293 298 296 299 300 303 315 319 319 317 315 319 324 325 331 333 339 345 347 351 353 354 356 358 359 1 4 4 7 6 14 2 7 1 9 6 358
278 275 286 287 280 280 292 302 294 301 303 306 313 315 317 314 314 315 318 319 316 325 330 336 334 339 344 345 347 350 349 351 353 356 355 346 358 354 357 355 9 10 344
305 289 292 286 280 281 285 294 296 298 298 301 302 306 305 308 309 310 308 306 309 315 322 326 327 328 329 330 336 341 343 344 344 346 347 342 349 350 352 348 6 345 337
283 280 277 270 272 273 278 282 285 292 293 295 300 302 305 308 311 312 310 311 310 315 319 318 325 324 324 324 331 333 336 339 342 341 341 338 344 347 353 348 357 344 346